This is the latest recevied weather packets stored in our database for station/object NR5ON-13. If no packets are shown the sender has not sent any weather packets the latest 10 day(s).
| Time | Temp. | Humidity | Pressure | Rain* | Wind** | Luminosity | Snow |
|---|---|---|---|---|---|---|---|
| 1777746799 | 13.33° C | 39% | 1025.4 hPa | 0 mm | - | - | - |
| 1777746505 | 13.33° C | 40% | 1025.5 hPa | 0 mm | - | - | - |
| 1777746210 | 13.33° C | 40% | 1025.5 hPa | 0 mm | - | - | - |
| 1777745898 | 13.89° C | 42% | 1025.6 hPa | 0 mm | - | - | - |
| 1777745604 | 13.33° C | 42% | 1025.6 hPa | 0 mm | - | - | - |
| 1777745310 | 12.78° C | 44% | 1025.6 hPa | 0 mm | - | - | - |
| 1777744998 | 12.78° C | 43% | 1025.7 hPa | 0 mm | - | - | - |
| 1777744703 | 12.78° C | 45% | 1025.7 hPa | 0 mm | - | - | - |
| 1777744409 | 12.78° C | 45% | 1025.7 hPa | 0 mm | - | - | - |
| 1777744114 | 12.22° C | 45% | 1025.8 hPa | 0 mm | - | - | - |
| 1777743799 | 12.22° C | 46% | 1025.7 hPa | 0 mm | - | - | - |
| 1777743504 | 12.22° C | 46% | 1025.8 hPa | 0 mm | - | - | - |
| 1777743209 | 12.22° C | 47% | 1025.7 hPa | 0 mm | - | - | - |
| 1777742898 | 12.22° C | 48% | 1025.7 hPa | 0 mm | - | - | - |
| 1777742603 | 12.22° C | 50% | 1025.7 hPa | 0 mm | - | - | - |
| 1777742312 | 11.67° C | 50% | 1025.7 hPa | 0 mm | - | - | - |
| 1777742017 | 11.67° C | 50% | 1025.7 hPa | 0 mm | - | - | - |
| 1777741702 | 11.11° C | 51% | 1025.6 hPa | 0 mm | - | - | - |
| 1777741408 | 11.11° C | 50% | 1025.7 hPa | 0 mm | - | - | - |
| 1777741114 | 10.56° C | 50% | 1025.7 hPa | 0 mm | - | - | - |
| 1777740802 | 10.56° C | 52% | 1025.7 hPa | 0 mm | - | - | - |
| 1777740511 | 10.56° C | 52% | 1025.7 hPa | 0 mm | - | - | - |
| 1777740200 | 10.56° C | 52% | 1025.7 hPa | 0 mm | - | - | - |
| 1777739908 | 10.56° C | 56% | 1025.8 hPa | 0 mm | - | - | - |
| 1777739613 | 10° C | 53% | 1025.8 hPa | 0 mm | - | - | - |
* Rain latest hour (hover to see other rain measurements)
** Current wind speed in m/s (hover to see current wind gust speed)